Hourly Data Report for September 23, 2017

All times are specified in Local Standard Time (LST). Add 1 hour to adjust for Daylight Saving Time where and when it is observed.

GRAND MANAN SAR CS
NEW BRUNSWICK

44°42'43.400" N
66°48'06.900" W
78.20 m
8101925
71030
XGM

Download Data

Hourly Data (September 2017)
Hourly Data Report for September 23, 2017
Temp Definition
°C
Dew Point Temp Definition
°C
Rel Hum Definition
%
Wind Dir Definition
10's deg

Wind Spd Definition
km/h
Visibility Definition
km
Stn Press Definition
kPa
Hmdx Definition


Wind Chill Definition


Weather Definition


TIME
00:00 13.7 11.1 84 6 7   100.91     LegendNANA
01:00 14.9 11.8 82 9 10   100.89     LegendNANA
02:00 14.7 10.7 77 6 7   100.88     LegendNANA
03:00 14.5 11.2 81 6 8   100.84     LegendNANA
04:00 14.3 11.3 82 6 7   100.81     LegendNANA
05:00 14.1 11.7 85 7 7   100.78     LegendNANA
06:00 13.8 12.0 89 6 6   100.76     LegendNANA
07:00 14.2 12.9 92 5 2   100.75     LegendNANA
08:00 15.8 14.2 90   0   100.75     LegendNANA
09:00 17.7 15.8 89 0 1   100.74     LegendNANA
10:00 20.5 16.4 77 12 3   100.76 25   LegendNANA
11:00 21.3 17.4 78 34 6   100.76 27   LegendNANA
12:00 22.2 16.4 70 7 7   100.76 27   LegendNANA
13:00 22.9 16.5 67 14 8   100.71 28   LegendNANA
14:00 22.4 16.2 68 17 12   100.65 27   LegendNANA
15:00 23.9 17.0 66 20 11   100.61 29   LegendNANA
16:00 23.4 17.0 68 21 10   100.56 29   LegendNANA
17:00 20.9 17.1 79 23 10   100.59 26   LegendNANA
18:00 19.1 17.0 88 23 8   100.58     LegendNANA
19:00 17.3 16.3 94 27 5   100.64     LegendNANA
20:00 16.6 15.9 96 29 3   100.68     LegendNANA
21:00 16.8 16.4 97 28 4   100.70     LegendNANA
22:00 16.6 16.2 97 26 6   100.71     LegendNANA
23:00 15.3 14.9 97 30 7   100.73     LegendNANA

Notes on Data Quality.

Legend

  • E = Estimated
  • M = Missing
  • NA = Not Available
  • ‡ = Partner data that is not subject to review by the National Climate Archives
Date modified: